This is the latest recevied weather packets stored in our database for station/object SK6WX-13. If no packets are shown the sender has not sent any weather packets the latest 1 day(s).
| Time | Temp. | Humidity | Pressure | Rain* | Wind** | Luminosity | Snow |
|---|---|---|---|---|---|---|---|
| 1778197505 | 10° C | 62% | 1016.8 hPa | 0 mm | - | - | - |
| 1778196604 | 10° C | 63% | 1016.8 hPa | 0 mm | - | - | - |
| 1778195705 | 9.44° C | 61% | 1016.9 hPa | 0 mm | - | - | - |
| 1778194805 | 10° C | 56% | 1017.1 hPa | 0 mm | - | - | - |
| 1778193905 | 11.11° C | 54% | 1017.3 hPa | 0 mm | - | - | - |
| 1778193004 | 11.11° C | 53% | 1017.3 hPa | 0 mm | - | - | - |
| 1778192105 | 11.11° C | 54% | 1017.2 hPa | 0 mm | - | - | - |
| 1778191210 | 10.56° C | 57% | 1017.1 hPa | 0 mm | - | - | - |
| 1778190304 | 11.11° C | 60% | 1017 hPa | 0 mm | - | - | - |
| 1778189405 | 11.11° C | 59% | 1017 hPa | 0 mm | - | - | - |
| 1778188504 | 11.11° C | 56% | 1017.1 hPa | 0 mm | - | - | - |
| 1778187604 | 11.11° C | 54% | 1016.9 hPa | 0 mm | - | - | - |
| 1778186704 | 11.11° C | 51% | 1016.9 hPa | 0 mm | - | - | - |
| 1778185805 | 11.67° C | 48% | 1016.9 hPa | 0 mm | - | - | - |
| 1778184905 | 11.67° C | 46% | 1016.9 hPa | 0 mm | - | - | - |
| 1778184004 | 11.67° C | 45% | 1016.8 hPa | 0 mm | - | - | - |
| 1778183105 | 11.67° C | 43% | 1016.7 hPa | 0 mm | - | - | - |
| 1778182203 | 12.22° C | 38% | 1016.6 hPa | 0 mm | - | - | - |
| 1778181304 | 12.22° C | 36% | 1016.5 hPa | 0 mm | - | - | - |
| 1778180405 | 12.22° C | 32% | 1016.5 hPa | 0 mm | - | - | - |
| 1778179504 | 12.22° C | 32% | 1016.3 hPa | 0 mm | - | - | - |
| 1778178604 | 12.22° C | 30% | 1016.2 hPa | 0 mm | - | - | - |
| 1778177705 | 12.78° C | 27% | 1016.2 hPa | 0 mm | - | - | - |
| 1778176804 | 13.33° C | 26% | 1016.1 hPa | 0 mm | - | - | - |
| 1778175904 | 13.33° C | 28% | 1016 hPa | 0 mm | - | - | - |
* Rain latest hour (hover to see other rain measurements)
** Current wind speed in m/s (hover to see current wind gust speed)